Regional Weather Roundup
Issued by NWS

Home | Current Version | Previous Version | Text Only | Print | Product List | Glossary On
Versions: 1 2 3 4 5 6 7 8 9 10 11 12 13 14 15 16 17 18 19 20 21 22 23 24 25 26 27 28 29 30 31 32 33 34 35 36 37 38 39 40 41 42 43 44 45 46 47 48 49 50
000
ASUS43 KLSX 100507
RWRMO

WEATHER SUMMARY FOR MISSOURI
NATIONAL WEATHER SERVICE SPRINGFIELD MO
1100 PM CST FRI DEC 09 2016

NOTE: "FAIR" INDICATES FEW OR NO CLOUDS BELOW 12,000 FEET WITH NO
       SIGNIFICANT WEATHER AND/OR OBSTRUCTIONS TO VISIBILITY.
       CURRENT SKY AND/OR WEATHER CONDITIONS ARE NOT AVAILABLE FOR
       CHILLICOTHE AND FARMINGTON.

MOZ001>031-035>038-043-044-053-054-100600-
...NORTHERN AND WESTERN MISSOURI...

CITY           SKY/WX    TMP DP  RH WIND       PRES   REMARKS
KANSAS CTY INT CLOUDY    27  11  51 SE9       30.50S WCI  18
KANSAS C DTWN  CLOUDY    28  11  48 SE6       30.53R WCI  22
LEE`S SUMMIT   CLOUDY    26  12  55 E6        30.52S WCI  19
ST JOSEPH      CLOUDY    26  12  55 SE6       30.51F WCI  19
CHILLICOTHE      N/A     25  11  55 SE5       30.56R WCI  19
KIRKSVILLE     CLOUDY    23  15  71 CALM      30.55R

$$
MOZ066>068-077>081-088>096-101>105-100600-
...SOUTHWEST MISSOURI...

CITY           SKY/WX    TMP DP  RH WIND       PRES   REMARKS
SPRINGFIELD    CLOUDY    30  12  47 S7        30.50S WCI  23
JOPLIN         CLOUDY    31  16  54 SE3       30.52S
BRANSON        CLOUDY    28  16  59 SE6       30.53S WCI  22

$$
MOZ032>034-039>042-045>050-055>058-069>072-100600-
...CENTRAL MISSOURI...

CITY           SKY/WX    TMP DP  RH WIND       PRES   REMARKS
COLUMBIA       CLOUDY    24  13  62 E5        30.55R WCI  18
JEFFERSON CITY CLOUDY    25  15  66 CALM      30.57S
ROLLA          CLOUDY    23  12  62 E5        30.52S WCI  17
SEDALIA        CLOUDY    26  11  52 E7        30.55S WCI  18
WHITEMAN AFB   CLOUDY    26  11  54 E6        30.52F WCI  19
WARRENSBURG    CLOUDY    27  12  54 E5        30.54S WCI  21
OSAGE BEACH    CLOUDY    26  14  60 CALM      30.54S

$$
MOZ051-052-059>065-100600-
...EAST CENTRAL MISSOURI...

CITY           SKY/WX    TMP DP  RH WIND       PRES   REMARKS
ST LOUIS INTL  CLOUDY    25  14  63 CALM      30.58F
SPIRIT OF STL  CLOUDY    21  17  84 CALM      30.59S
ST CHARLES     CLOUDY    23  18  81 CALM      30.59S

$$
MOZ072>076-082>087-097>100-106>115-100600-
...SOUTH CENTRAL AND SOUTHEAST MISSOURI...

CITY           SKY/WX    TMP DP  RH WIND       PRES   REMARKS
CAPE GIRARDEAU CLEAR     22  18  85 SE5       30.61R WCI  16
FARMINGTON     CLEAR     16  11  80 CALM      30.57R
POPLAR BLUFF   CLEAR     22  20  92 CALM      30.60S
WEST PLAINS    PTCLDY    23  16  74 CALM      30.54S

$$


USA.gov is the U.S. government's official web portal to all federal, state and local government web resources and services.